Location: Chinatown
(37.7966°N, 122.4086°W)
Time: 21:31:44
(UTC+00:00)

Tiangong - Visible Passes

Search period start: 19 January 2026 00:00
Search period end: 29 January 2026 00:00
Orbit: 378 x 393 km, 41.5° (Epoch: 19 January)

Date Brightness Start Highest point End Pass type
(mag) Time Alt. Az. Time Alt. Az. Time Alt. Az.
19 Jan -1.2 13:29:20 47° SE 13:29:20 47° SE 13:32:03 10° ENE visible
20 Jan -2.1 14:05:20 36° W 14:06:24 62° NNW 14:09:35 10° ENE visible
21 Jan 0.4 13:08:56 21° ENE 13:08:56 21° ENE 13:10:11 10° ENE visible
21 Jan -1.4 14:41:10 11° WNW 14:44:01 41° N 14:47:05 10° ENE visible
22 Jan -1.6 13:44:39 46° N 13:44:39 46° N 13:47:35 10° ENE visible
23 Jan 1.4 12:48:02 10° ENE 12:48:02 10° ENE 12:48:06 10° ENE visible
23 Jan -1.4 14:20:15 20° WNW 14:22:04 40° N 14:25:07 10° ENE visible
24 Jan -0.4 13:23:34 28° NE 13:23:34 28° NE 13:25:29 10° ENE visible
25 Jan -1.5 13:59:02 34° NW 13:59:56 46° N 14:03:01 10° E visible
26 Jan 0.7 13:02:16 18° ENE 13:02:16 18° ENE 13:03:16 10° ENE visible
26 Jan -2.1 14:34:29 13° WNW 14:37:16 89° NE 14:40:27 10° ESE visible
27 Jan -1.9 13:37:41 60° NNE 13:37:41 60° NNE 13:40:45 10° E visible
28 Jan 1.6 12:40:53 10° E 12:40:53 10° E 12:40:56 10° E visible
28 Jan -1.8 14:13:06 24° W 14:14:45 54° SSW 14:17:51 10° SE visible
